Location: Downe
(51.3167°N, 0.0500°E)
Time: 05:06:53
(UTC+00:00)

Lacrosse 5 - Pass Details

Date: 17 November 2019
Orbit: 715 x 724 km, 57.0° (Epoch: 04 December)

Event Time Altitude Azimuth Distance (km) Brightness Sun altitude
Exits shadow 04:42:39 74° 255° (WSW) 750 1.7 -24.3°
Maximum altitude 04:43:07 86° 330° (NNW) 726 1.7 -24.2°
Drops below altitude 10° 04:48:13 10° 60° (ENE) 2,205 5.2 -23.4°
Sets 04:50:36 0° 61° (ENE) 3,126 6.1 -23.0°
